Montpelier, VT

6:29 AM EST on December 11, 2019 (GMT -0500)
Knapp State

Weather History for KMPV - July, 2019

Change the Weather History Date:

Wednesday, July 31, 2019

  Actual Average Record
Temperature  
Mean Temperature 72 °F 67 °F  
Max Temperature 81 °F 78 °F 90 °F (1955)
Min Temperature 62 °F 56 °F 42 °F (1964)
Degree Days  
Heating Degree Days 0 1  
Month to date heating degree days 9 37  
Since 1 June heating degree days 153 161  
Since 1 July heating degree days 9 40  
Cooling Degree Days 6 3  
Month to date cooling degree days 138 105  
Year to date cooling degree days 158 168  
Since 1 June cooling degree days 157 158  
Growing Degree Days 22 (Base 50)    
Moisture  
Dew Point 65 °F    
Average Humidity 94    
Maximum Humidity 100    
Minimum Humidity 58    
Precipitation  
Precipitation 1.03 in 0.15 in 2.06 in (1962)
Month to date precipitation 5.62 4.08  
Year to date precipitation 30.55 20.79  
Sea Level Pressure  
Sea Level Pressure 30.05 in    
Wind  
Wind Speed 2 mph ()    
Max Wind Speed 20 mph    
Max Gust Speed 27 mph    
Visibility 4.5 miles    
Events Fog , Rain , Thunderstorm    
T = Trace of Precipitation, MM = Missing Value Source: Averaged Metar Reports

Daily Weather History Graph

Daily Weather History Graph

Search for Another Location

Airport or City:

Astronomy

Jul. 31, 2019 Rise Set
Actual Time 5:36 AM EDT 8:16 PM EDT
Civil Twilight 5:03 AM EDT 8:49 PM EDT
Nautical Twilight 4:21 AM EDT 9:30 PM EDT
Astronomical Twilight 3:33 AM EDT 10:18 PM EDT
Moon 4:44 AM EDT (7/31) 8:14 PM EDT (7/31)
Length of Visible Light 15h 46m
Length of Day
14h 39m
Waning Crescent, 0% of the Moon is Illuminated
Jul 31
Waning Crescent
Jul 31
New
Aug 7
First Quarter
Aug 15
Full
Aug 23
Last Quarter

Hourly Weather History & Observations

Time (EDT) Temp. Heat Index Dew Point Humidity Pressure Visibility Wind Dir Wind Speed Gust Speed Precip Events Conditions
12:51 AM 64.9 °F - 64.9 °F 100% 30.02 in 9.0 mi Calm Calm - 0.01 in   Mostly Cloudy
12:59 AM 66.0 °F - 66.0 °F 100% 30.03 in 1.8 mi Calm Calm - N/A   Mostly Cloudy
1:01 AM 66.0 °F - 66.0 °F 100% 30.03 in 1.0 mi Calm Calm - N/A   Mostly Cloudy
1:03 AM 66.0 °F - 66.0 °F 100% 30.03 in 0.8 mi Calm Calm - N/A   Mostly Cloudy
1:11 AM 66.0 °F - 66.0 °F 100% 30.03 in 1.0 mi Calm Calm - 0.00 in Rain Light Rain
1:19 AM 66.0 °F - 66.0 °F 100% 30.03 in 1.2 mi Calm Calm - 0.00 in Rain Light Rain
1:21 AM 66.0 °F - 66.0 °F 100% 30.03 in 0.8 mi Calm Calm - 0.00 in Rain Light Rain
1:42 AM 64.9 °F - 64.9 °F 100% 30.03 in 1.2 mi Calm Calm - 0.00 in   Overcast
1:46 AM 64.4 °F - 64.4 °F 100% 30.03 in 2.0 mi Calm Calm - 0.00 in Rain Light Rain
1:51 AM 64.9 °F - 64.9 °F 100% 30.01 in 2.5 mi Calm Calm - 0.00 in Rain Light Rain
2:05 AM 64.9 °F - 64.9 °F 100% 30.03 in 5.0 mi East 3.5 mph - 0.00 in   Mostly Cloudy
2:42 AM 64.9 °F - 64.9 °F 100% 30.03 in 1.8 mi Calm Calm - 0.00 in   Mostly Cloudy
2:46 AM 64.4 °F - 64.4 °F 100% 30.03 in 2.5 mi NNW 3.5 mph - 0.00 in   Mostly Cloudy
2:51 AM 64.9 °F - 64.9 °F 100% 30.01 in 2.5 mi North 3.5 mph - 0.00 in   Mostly Cloudy
3:03 AM 64.9 °F - 64.9 °F 100% 30.02 in 1.0 mi ENE 5.8 mph - N/A   Mist
3:10 AM 64.9 °F - 64.9 °F 100% 30.02 in 0.2 mi East 4.6 mph - N/A Fog Fog
3:51 AM 64.9 °F - 64.9 °F 100% 30.00 in 0.2 mi Calm Calm - N/A Fog Fog
4:18 AM 64.9 °F - 64.9 °F 100% 30.03 in 1.2 mi Calm Calm - N/A   Overcast
4:21 AM 64.9 °F - 64.9 °F 100% 30.04 in 2.0 mi WNW 5.8 mph - N/A   Overcast
4:23 AM 64.9 °F - 64.9 °F 100% 30.05 in 1.8 mi WNW 8.1 mph - N/A   Overcast
4:28 AM 64.9 °F - 64.9 °F 100% 30.04 in 1.0 mi WNW 12.7 mph 21.9 mph 0.27 in Rain Light Rain
4:31 AM 64.9 °F - 64.9 °F 100% 30.04 in 1.0 mi WNW 8.1 mph 21.9 mph 0.31 in Rain , Thunderstorm Heavy Thunderstorms and Rain
4:33 AM 64.9 °F - 64.9 °F 100% 30.03 in 1.2 mi SW 12.7 mph 21.9 mph 0.31 in Rain , Thunderstorm Heavy Thunderstorms and Rain
4:38 AM 64.9 °F - 64.0 °F 97% 30.03 in 2.5 mi NW 5.8 mph 19.6 mph 0.32 in Rain , Thunderstorm Light Thunderstorms and Rain
4:51 AM 64.9 °F - 64.9 °F 100% 30.03 in 10.0 mi SSE 6.9 mph - 0.32 in Rain , Thunderstorm Light Thunderstorms and Rain
5:00 AM 64.9 °F - 64.9 °F 100% 30.04 in 10.0 mi Calm Calm - 0.00 in Rain Light Rain
5:44 AM 64.0 °F - 64.0 °F 100% 30.04 in 1.5 mi Calm Calm - 0.00 in   Clear
5:48 AM 64.4 °F - 64.4 °F 100% 30.05 in 1.0 mi NW 3.5 mph - 0.00 in   Clear
5:51 AM 64.0 °F - 64.0 °F 100% 30.04 in 1.0 mi Calm Calm - 0.00 in   Clear
5:56 AM 64.0 °F - 64.0 °F 100% 30.05 in 0.8 mi Calm Calm - N/A   Mist
6:29 AM 64.0 °F - 64.0 °F 100% 30.05 in 0.5 mi SSE 3.5 mph - N/A Fog Fog
6:44 AM 64.9 °F - 64.9 °F 100% 30.05 in 1.5 mi Calm Calm - N/A   Scattered Clouds
6:46 AM 64.4 °F - 64.4 °F 100% 30.05 in 4.0 mi Calm Calm - N/A   Scattered Clouds
6:51 AM 64.9 °F - 64.9 °F 100% 30.05 in 8.0 mi Calm Calm - N/A   Scattered Clouds
7:25 AM 66.0 °F - 66.0 °F 100% 30.06 in 10.0 mi Calm Calm - N/A   Mostly Cloudy
7:51 AM 66.9 °F - 66.9 °F 100% 30.05 in 10.0 mi Calm Calm - N/A   Mostly Cloudy
8:51 AM 73.0 °F - 68.0 °F 84% 30.06 in 10.0 mi Calm Calm - N/A   Clear
9:51 AM 73.9 °F - 69.1 °F 85% 30.06 in 10.0 mi Variable 3.5 mph - N/A   Partly Cloudy
10:25 AM 75.0 °F - 66.0 °F 73% 30.08 in 10.0 mi NW 5.8 mph - N/A   Mostly Cloudy
10:51 AM 75.0 °F - 66.9 °F 76% 30.08 in 10.0 mi North - - N/A   Scattered Clouds
11:01 AM 73.9 °F - 68.0 °F 82% 30.09 in 10.0 mi North 4.6 mph - N/A   Mostly Cloudy
11:32 AM 75.0 °F - 66.9 °F 76% 30.09 in 10.0 mi Calm Calm - N/A   Mostly Cloudy
11:51 AM 73.9 °F - 66.0 °F 76% 30.08 in 10.0 mi West 3.5 mph - N/A   Scattered Clouds
12:51 PM 79.0 °F - 66.0 °F 64% 30.06 in 10.0 mi SE 5.8 mph - N/A   Partly Cloudy
1:51 PM 80.1 °F 81.9 °F 64.9 °F 60% 30.04 in 10.0 mi North 3.5 mph - N/A   Clear
2:51 PM 79.0 °F - 64.0 °F 60% 30.03 in 10.0 mi Calm Calm - N/A   Partly Cloudy
3:21 PM 73.0 °F - 68.0 °F 84% 30.05 in 1.5 mi WSW 8.1 mph - 0.18 in Rain Heavy Rain
3:26 PM 71.1 °F - 66.9 °F 87% 30.05 in 1.2 mi NW 9.2 mph - 0.25 in Rain , Thunderstorm Heavy Thunderstorms and Rain
3:32 PM 70.0 °F - 66.0 °F 87% 30.05 in 2.0 mi NNE 13.8 mph 19.6 mph 0.29 in Rain , Thunderstorm Thunderstorms and Rain
3:40 PM 66.9 °F - 64.0 °F 90% 30.07 in 1.0 mi North 17.3 mph 26.5 mph 0.60 in Rain , Thunderstorm Heavy Thunderstorms and Rain
3:42 PM 68.0 °F - 64.9 °F 90% 30.07 in 0.8 mi NNE 15.0 mph 26.5 mph 0.68 in Rain , Thunderstorm Heavy Thunderstorms and Rain
3:48 PM 69.8 °F - 64.4 °F 83% 30.07 in 1.0 mi East 13.8 mph 23.0 mph 0.68 in Rain , Thunderstorm Light Thunderstorms and Rain
3:51 PM 69.1 °F - 64.9 °F 87% 30.06 in 2.5 mi East 5.8 mph 23.0 mph 0.68 in Rain , Thunderstorm Light Thunderstorms and Rain
3:58 PM 69.1 °F - 64.9 °F 87% 30.06 in 10.0 mi Variable 5.8 mph - 0.01 in Rain , Thunderstorm Light Thunderstorms and Rain
4:19 PM 68.0 °F - 66.0 °F 93% 30.07 in 10.0 mi WSW 4.6 mph - 0.02 in Rain , Thunderstorm Light Rain
4:35 PM 69.1 °F - 66.0 °F 90% 30.06 in 10.0 mi South 4.6 mph - 0.02 in Rain Light Rain
4:51 PM 70.0 °F - 66.9 °F 90% 30.05 in 10.0 mi West 4.6 mph - 0.02 in   Partly Cloudy
5:51 PM 69.1 °F - 68.0 °F 96% 30.05 in 10.0 mi ESE 5.8 mph - N/A   Partly Cloudy
6:03 PM 69.1 °F - 66.9 °F 93% 30.06 in 10.0 mi SE 4.6 mph - N/A   Partly Cloudy
6:51 PM 69.1 °F - 66.9 °F 93% 30.07 in 10.0 mi SSW 3.5 mph - N/A   Partly Cloudy
7:51 PM 69.1 °F - 66.0 °F 90% 30.06 in 10.0 mi Calm Calm - N/A   Scattered Clouds
8:34 PM 66.9 °F - 66.0 °F 97% 30.08 in 10.0 mi Calm Calm - N/A   Scattered Clouds
8:43 PM 66.0 °F - 64.9 °F 96% 30.08 in 1.8 mi Calm Calm - N/A   Scattered Clouds
8:51 PM 64.9 °F - 64.0 °F 97% 30.07 in 1.8 mi Calm Calm - N/A   Scattered Clouds
8:56 PM 64.0 °F - 63.0 °F 96% 30.08 in 1.8 mi SSW 3.5 mph - N/A   Mostly Cloudy
9:06 PM 64.9 °F - 64.0 °F 97% 30.08 in 2.0 mi Calm Calm - N/A   Scattered Clouds
9:14 PM 64.0 °F - 64.0 °F 100% 30.08 in 3.0 mi South 3.5 mph - N/A   Mostly Cloudy
9:20 PM 63.0 °F - 63.0 °F 100% 30.08 in 1.8 mi Calm Calm - N/A   Mostly Cloudy
9:26 PM 64.0 °F - 63.0 °F 96% 30.08 in 3.0 mi Calm Calm - N/A   Scattered Clouds
9:41 PM 64.0 °F - 64.0 °F 100% 30.09 in 1.8 mi Calm Calm - N/A   Mostly Cloudy
9:51 PM 64.0 °F - 64.0 °F 100% 30.08 in 3.0 mi Calm Calm - N/A   Mostly Cloudy
10:25 PM 64.0 °F - 63.0 °F 96% 30.09 in 1.5 mi Calm Calm - N/A   Scattered Clouds
10:35 PM 63.0 °F - 63.0 °F 100% 30.08 in 4.0 mi Calm Calm - N/A   Scattered Clouds
10:51 PM 63.0 °F - 62.1 °F 97% 30.08 in 7.0 mi Calm Calm - N/A   Mostly Cloudy
11:06 PM 63.0 °F - 63.0 °F 100% 30.09 in 10.0 mi Calm Calm - N/A   Mostly Cloudy
11:15 PM 63.0 °F - 62.1 °F 97% 30.09 in 10.0 mi Calm Calm - N/A   Overcast
11:28 PM 63.0 °F - 63.0 °F 100% 30.09 in 1.8 mi Calm Calm - N/A   Overcast
11:31 PM 63.0 °F - 63.0 °F 100% 30.09 in 1.0 mi Calm Calm - N/A   Mist
11:38 PM 64.0 °F - 64.0 °F 100% 30.09 in 0.2 mi Calm Calm - N/A Fog Fog
11:51 PM 64.0 °F - 64.0 °F 100% 30.09 in 0.2 mi Calm Calm - N/A Fog Fog